Location: Centerville
(32.8776°N, 96.6203°W)
Time: 02:29:18
(UTC+00:00)

SAR-Lupe-4 - Pass Details

Date: 17 June 2021
Orbit: 483 x 483 km, 98.2° (Epoch: 13 April)

Event Time Altitude Azimuth Distance (km) Brightness Sun altitude
Rises 02:08:48 0° 9° (N) 2,549 7.6 -6.6°
Reaches altitude 10° 02:10:53 10° 6° (N) 1,666 6.7 -6.9°
Maximum altitude 02:14:26 65° 285° (WNW) 532 4.0 -7.6°
Drops below altitude 10° 02:17:57 10° 202° (SSW) 1,654 6.1 -8.2°
Sets 02:20:00 0° 199° (SSW) 2,530 7.0 -8.5°
